Location: Wanzleben
(52.0609°N, 11.4408°E)
Time: 10:50:11
(UTC+00:00)

Abrixas rocket - Pass Details

Date: 18 September 2020
Orbit: 328 x 335 km, 48.4° (Epoch: 25 October)

Event Time Altitude Azimuth Distance (km) Brightness Sun altitude
Rises 19:25:50 0° 260° (W) 2,093 6.6 -19.1°
Reaches altitude 10° 19:27:54 10° 252° (WSW) 1,255 5.2 -19.4°
Enters shadow 19:29:30 26° 230° (SW) 688 3.5 -19.6°
